Weather History for Beverly, MA

Change the Weather History Date:

Tuesday, February 5, 2013

  Actual Average Record
Temperature  
Mean Temperature 28 °F -  
Max Temperature 36 °F 34 °F 52 °F (2005)
Min Temperature 21 °F 17 °F 3 °F (2009)
Degree Days  
Heating Degree Days 36    
Moisture  
Dew Point 13 °F    
Average Humidity 58    
Maximum Humidity 86    
Minimum Humidity 27    
Precipitation  
Precipitation 0.00 in - - ()
Sea Level Pressure  
Sea Level Pressure 29.96 in    
Wind  
Wind Speed 5 mph (WSW)    
Max Wind Speed 9 mph    
Max Gust Speed -    
Visibility 8 miles    
Events Snow    
Averages and records for this station are not official NWS values.
T = Trace of Precipitation, MM = Missing Value Source: NWS Daily Summary

Daily Weather History Graph

Daily Weather History Graph

Search for Another Location

Airport:

Trip Planner

Search our weather history database for the weather conditions in past years. The results will help you decide how hot, cold, wet, or windy it might be!

Date:

Astronomy

Feb. 05, 2013 Rise Set
Actual Time 6:53 AM EST 5:02 PM EST
Civil Twilight 6:23 AM EST 5:32 PM EST
Nautical Twilight 5:50 AM EST 6:05 PM EST
Astronomical Twilight 5:17 AM EST 6:38 PM EST
Moon 2:33 AM EST (2/5) 12:14 PM EST (2/5)
Length of Visible Light 11h 08m
Length of Day
10h 09m
Waning Crescent, 27% of the Moon is Illuminated
Feb 5
Waning Crescent
Feb 10
New
Feb 17
First Quarter
Feb 25
Full
Mar 4
Last Quarter

Hourly Weather History & Observations

Time (EST) Temp. Windchill Dew Point Humidity Pressure Visibility Wind Dir Wind Speed Gust Speed Precip Events Conditions
12:53 AM 21.0 °F 12.4 °F 3.0 °F 46% 29.93 in 10.0 mi West 6.9 mph - N/A   Scattered Clouds
1:53 AM 35.1 °F 28.6 °F 3.9 °F 27% 29.94 in 10.0 mi WSW 8.1 mph - N/A   Overcast
2:53 AM 36.0 °F 29.6 °F 5.0 °F 27% 29.94 in 10.0 mi West 8.1 mph - N/A   Overcast
3:53 AM 35.1 °F 28.6 °F 5.0 °F 28% 29.95 in 10.0 mi WSW 8.1 mph - N/A   Overcast
4:53 AM 33.1 °F 25.5 °F 6.1 °F 32% 29.95 in 10.0 mi WSW 9.2 mph - N/A   Overcast
5:53 AM 34.0 °F 29.8 °F 5.0 °F 30% 29.95 in 10.0 mi West 4.6 mph - N/A   Overcast
6:53 AM 21.2 °F 14.9 °F 6.1 °F 52% 29.98 in 10.0 mi WSW 4.6 mph - N/A   Overcast
7:53 AM 21.9 °F - 7.0 °F 53% 30.00 in 10.0 mi Calm Calm - N/A   Overcast
8:53 AM 24.1 °F 19.7 °F 6.1 °F 46% 30.01 in 10.0 mi West 3.5 mph - N/A   Overcast
9:53 AM 24.8 °F - 5.0 °F 43% 30.02 in 10.0 mi Calm Calm - N/A   Overcast
10:53 AM 26.1 °F 19.4 °F 6.1 °F 43% 30.01 in 10.0 mi Variable 5.8 mph - N/A   Overcast
11:53 AM 27.0 °F 23.0 °F 5.0 °F 39% 30.00 in 10.0 mi Variable 3.5 mph - N/A   Overcast
12:53 PM 27.0 °F 23.0 °F 5.0 °F 39% 29.99 in 10.0 mi Variable 3.5 mph - N/A   Overcast
1:53 PM 28.9 °F - 7.0 °F 40% 29.96 in 10.0 mi Calm Calm - N/A   Clear
2:53 PM 28.0 °F 20.8 °F 8.1 °F 43% 29.96 in 10.0 mi SE 6.9 mph - N/A   Clear
3:53 PM 27.0 °F 18.7 °F 9.0 °F 47% 29.95 in 10.0 mi SE 8.1 mph - N/A   Clear
4:53 PM 26.1 °F 20.5 °F 10.0 °F 51% 29.95 in 10.0 mi ESE 4.6 mph - N/A   Mostly Cloudy
5:53 PM 26.1 °F 20.5 °F 12.0 °F 55% 29.94 in 10.0 mi SE 4.6 mph - N/A   Scattered Clouds
6:53 PM 27.0 °F - 12.9 °F 56% 29.96 in 10.0 mi Calm Calm - N/A   Overcast
7:53 PM 27.0 °F 23.0 °F 14.0 °F 58% 29.95 in 10.0 mi NE 3.5 mph - N/A   Overcast
8:35 PM 26.6 °F 20.0 °F 21.2 °F 80% 29.95 in 2.5 mi SSE 5.8 mph - 0.00 in Snow Light Snow
8:53 PM 27.0 °F - 21.9 °F 81% 29.95 in 3.0 mi Calm Calm - 0.00 in Snow Light Snow
9:16 PM 26.6 °F - 21.2 °F 80% 29.96 in 2.5 mi Calm Calm - 0.00 in Snow Light Snow
9:42 PM 26.6 °F - 21.2 °F 80% 29.96 in 3.0 mi Calm Calm - 0.00 in Snow Light Snow
9:53 PM 27.0 °F - 23.0 °F 85% 29.95 in 5.0 mi Calm Calm - 0.00 in Snow Light Snow
10:05 PM 26.6 °F - 23.0 °F 86% 29.96 in 5.0 mi Calm Calm - 0.00 in Snow Light Snow
10:22 PM 26.6 °F 22.6 °F 21.2 °F 80% 29.95 in 5.0 mi NNE 3.5 mph - 0.00 in   Overcast
10:30 PM 26.6 °F - 23.0 °F 86% 29.95 in 5.0 mi Calm Calm - 0.00 in Snow Light Snow
10:44 PM 26.6 °F - 21.2 °F 80% 29.94 in 6.0 mi Calm Calm - 0.00 in   Overcast
10:53 PM 26.6 °F - 21.2 °F 80% 29.94 in 4.0 mi Calm Calm - N/A Snow Light Snow
11:04 PM 26.6 °F 22.6 °F 21.2 °F 80% 29.94 in 4.0 mi NE 3.5 mph - 0.00 in Snow Light Snow
11:36 PM 26.6 °F - 21.2 °F 80% 29.93 in 2.5 mi Calm Calm - 0.00 in Snow Light Snow
11:53 PM 26.1 °F 21.9 °F 21.9 °F 84% 29.93 in 2.0 mi NNW 3.5 mph - 0.00 in Snow Light Snow